Location: Peterborough
(44.3091°N, 78.3197°W)
Time: 17:40:49
(UTC-04:00)

Explorer 7 - Pass Details

Date: 23 March 2023
Orbit: 477 x 653 km, 50.3° (Epoch: 04 June)

Event Time Altitude Azimuth Distance (km) Brightness Sun altitude
Rises 19:44:47 0° 255° (WSW) 2,858 12.1 -3.6°
Reaches altitude 10° 19:47:10 10° 259° (W) 1,926 11.2 -4.0°
Maximum altitude 19:51:31 58° 339° (NNW) 670 7.5 -4.8°
Drops below altitude 10° 19:55:36 10° 59° (ENE) 1,815 9.0 -5.5°
Enters shadow 19:57:13 - 63° (ENE) 2,444 9.6 -5.8°
Sets 19:57:48 0° 64° (ENE) 2,678 - -5.9°
